TimeCST,TemperatureF,Dew PointF,Humidity,Sea Level PressureIn,VisibilityMPH,Wind Direction,Wind SpeedMPH,Gust SpeedMPH,PrecipitationIn,Events,Conditions,WindDirDegrees,DateUTC
12:15 AM,13.1,10.0,88,30.31,10.0,Calm,Calm,-,N/A,,Clear,0,2013-03-02 06:15:00
12:35 AM,12.9,10.0,88,30.31,10.0,Calm,Calm,-,N/A,,Clear,0,2013-03-02 06:35:00
12:55 AM,12.2,9.0,87,30.32,10.0,Calm,Calm,-,N/A,,Clear,0,2013-03-02 06:55:00
1:15 AM,11.8,8.6,87,30.32,10.0,Calm,Calm,-,N/A,,Clear,0,2013-03-02 07:15:00
1:35 AM,11.1,7.7,86,30.31,10.0,Calm,Calm,-,N/A,,Clear,0,2013-03-02 07:35:00
1:55 AM,10.8,7.5,87,30.32,10.0,Calm,Calm,-,N/A,,Clear,0,2013-03-02 07:55:00
2:15 AM,10.9,7.5,86,30.32,10.0,Calm,Calm,-,N/A,,Clear,0,2013-03-02 08:15:00
2:35 AM,9.9,6.3,85,30.32,10.0,Calm,Calm,-,N/A,,Clear,0,2013-03-02 08:35:00
3:15 AM,9.1,5.7,86,30.31,10.0,Calm,Calm,-,N/A,,Clear,0,2013-03-02 09:15:00
3:35 AM,9.5,6.4,87,30.30,10.0,Calm,Calm,-,N/A,,Clear,0,2013-03-02 09:35:00
3:55 AM,10.9,7.5,86,30.29,10.0,Calm,Calm,-,N/A,,Clear,0,2013-03-02 09:55:00
4:15 AM,9.5,6.3,87,30.29,10.0,Calm,Calm,-,N/A,,Clear,0,2013-03-02 10:15:00
4:35 AM,8.6,5.4,87,30.30,10.0,Calm,Calm,-,N/A,,Clear,0,2013-03-02 10:35:00
4:55 AM,9.1,5.7,86,30.29,10.0,Calm,Calm,-,N/A,,Clear,0,2013-03-02 10:55:00
5:15 AM,10.8,7.2,85,30.30,10.0,Calm,Calm,-,N/A,,Clear,0,2013-03-02 11:15:00
5:55 AM,10.0,6.6,86,30.30,10.0,Calm,Calm,-,N/A,,Scattered Clouds,0,2013-03-02 11:55:00
6:35 AM,11.3,7.9,86,30.28,10.0,Calm,Calm,-,N/A,,Overcast,0,2013-03-02 12:35:00
6:55 AM,12.7,9.5,87,30.26,10.0,Calm,Calm,-,N/A,,Overcast,0,2013-03-02 12:55:00
7:15 AM,13.8,10.6,87,30.26,7.0,Calm,Calm,-,N/A,,Overcast,0,2013-03-02 13:15:00
7:55 AM,16.7,14.0,89,30.26,10.0,Calm,Calm,-,N/A,,Overcast,0,2013-03-02 13:55:00
8:15 AM,17.2,14.4,88,30.26,10.0,Calm,Calm,-,N/A,,Overcast,0,2013-03-02 14:15:00
8:35 AM,18.3,15.3,88,30.27,7.0,Calm,Calm,-,N/A,,Overcast,0,2013-03-02 14:35:00
8:55 AM,20.3,17.6,89,30.27,10.0,Calm,Calm,-,N/A,,Overcast,0,2013-03-02 14:55:00
9:15 AM,21.7,19.0,89,30.26,10.0,SSE,3.5,-,N/A,,Overcast,150,2013-03-02 15:15:00
9:35 AM,23.5,20.3,87,30.25,10.0,South,6.9,-,N/A,,Overcast,170,2013-03-02 15:35:00
9:55 AM,24.4,20.3,84,30.25,10.0,South,6.9,-,N/A,,Overcast,180,2013-03-02 15:55:00
10:15 AM,25.7,20.8,82,30.23,10.0,South,8.1,-,N/A,,Overcast,170,2013-03-02 16:15:00
10:35 AM,27.5,21.4,78,30.23,10.0,South,8.1,-,N/A,,Scattered Clouds,180,2013-03-02 16:35:00
10:55 AM,28.6,22.3,77,30.22,10.0,SSE,8.1,-,N/A,,Clear,160,2013-03-02 16:55:00
11:15 AM,29.3,22.5,76,30.22,10.0,SSE,9.2,-,N/A,,Clear,160,2013-03-02 17:15:00
11:35 AM,30.7,23.4,74,30.20,10.0,South,10.4,-,N/A,,Mostly Cloudy,180,2013-03-02 17:35:00
11:55 AM,31.5,23.9,74,30.20,10.0,South,10.4,-,N/A,,Overcast,170,2013-03-02 17:55:00
12:15 PM,31.8,24.3,74,30.19,10.0,South,9.2,-,N/A,,Overcast,170,2013-03-02 18:15:00
12:35 PM,32.2,24.8,74,30.20,10.0,South,9.2,-,N/A,,Overcast,170,2013-03-02 18:35:00
12:55 PM,33.4,25.3,72,30.18,10.0,South,11.5,-,N/A,,Overcast,170,2013-03-02 18:55:00
1:15 PM,34.3,26.2,72,30.16,10.0,South,11.5,-,N/A,,Mostly Cloudy,170,2013-03-02 19:15:00
1:35 PM,35.1,26.2,70,30.15,10.0,South,12.7,-,N/A,,Overcast,170,2013-03-02 19:35:00
1:55 PM,36.0,27.0,70,30.13,10.0,South,12.7,-,N/A,,Mostly Cloudy,170,2013-03-02 19:55:00
2:15 PM,36.5,27.1,69,30.13,10.0,South,11.5,-,N/A,,Scattered Clouds,170,2013-03-02 20:15:00
2:35 PM,37.6,27.9,68,30.12,10.0,South,12.7,-,N/A,,Scattered Clouds,170,2013-03-02 20:35:00
2:55 PM,38.3,28.4,68,30.11,10.0,South,10.4,-,N/A,,Scattered Clouds,170,2013-03-02 20:55:00
3:15 PM,38.8,29.3,69,30.10,10.0,South,13.8,-,N/A,,Clear,190,2013-03-02 21:15:00
3:35 PM,38.7,29.1,69,30.10,10.0,South,11.5,-,N/A,,Clear,180,2013-03-02 21:35:00
3:55 PM,38.3,29.5,71,30.10,10.0,South,8.1,-,N/A,,Clear,180,2013-03-02 21:55:00
4:15 PM,38.3,29.7,71,30.10,10.0,South,9.2,-,N/A,,Clear,180,2013-03-02 22:15:00
4:35 PM,37.8,29.7,73,30.10,10.0,South,8.1,-,N/A,,Clear,180,2013-03-02 22:35:00
4:55 PM,37.4,29.3,73,30.09,10.0,South,8.1,-,N/A,,Clear,180,2013-03-02 22:55:00
5:15 PM,36.7,29.5,75,30.09,10.0,South,10.4,-,N/A,,Clear,180,2013-03-02 23:15:00
5:55 PM,35.6,29.7,79,30.08,10.0,SSE,8.1,-,N/A,,Clear,150,2013-03-02 23:55:00
6:15 PM,34.9,29.7,81,30.08,10.0,SSE,6.9,-,N/A,,Clear,160,2013-03-03 00:15:00
6:35 PM,34.7,29.7,82,30.08,10.0,SSE,8.1,-,N/A,,Clear,160,2013-03-03 00:35:00
6:55 PM,34.2,29.7,84,30.08,10.0,SSE,6.9,-,N/A,,Clear,160,2013-03-03 00:55:00
7:15 PM,34.0,29.7,84,30.08,10.0,SSE,6.9,-,N/A,,Clear,160,2013-03-03 01:15:00
7:35 PM,33.8,29.3,84,30.07,10.0,SSE,6.9,-,N/A,,Clear,150,2013-03-03 01:35:00
7:55 PM,33.4,29.3,85,30.07,10.0,SSE,5.8,-,N/A,,Clear,160,2013-03-03 01:55:00
8:15 PM,33.8,29.8,85,30.05,10.0,SE,6.9,-,N/A,,Scattered Clouds,140,2013-03-03 02:15:00
8:35 PM,33.1,29.7,87,30.05,10.0,SSE,5.8,-,N/A,,Scattered Clouds,150,2013-03-03 02:35:00
8:55 PM,33.3,29.7,87,30.05,10.0,SSE,4.6,-,N/A,,Clear,150,2013-03-03 02:55:00
9:15 PM,33.1,29.3,86,30.04,10.0,SE,6.9,-,N/A,,Clear,140,2013-03-03 03:15:00
9:35 PM,32.4,29.1,88,30.04,10.0,SSE,5.8,-,N/A,,Clear,160,2013-03-03 03:35:00
9:55 PM,32.4,29.1,88,30.03,10.0,SSE,5.8,-,N/A,,Clear,160,2013-03-03 03:55:00
10:15 PM,32.0,28.8,88,30.03,10.0,SSE,5.8,-,N/A,,Clear,160,2013-03-03 04:15:00
10:35 PM,32.0,28.4,87,30.02,10.0,SSE,4.6,-,N/A,,Clear,160,2013-03-03 04:35:00
10:55 PM,32.0,28.4,87,30.02,10.0,SSE,3.5,-,N/A,,Clear,160,2013-03-03 04:55:00
11:15 PM,31.6,28.2,87,30.01,7.0,SSE,4.6,-,N/A,,Clear,150,2013-03-03 05:15:00
11:35 PM,31.8,28.4,87,30.00,7.0,SSE,3.5,-,N/A,,Clear,150,2013-03-03 05:35:00
11:55 PM,31.1,28.0,88,29.99,7.0,SE,4.6,-,N/A,,Clear,140,2013-03-03 05:55:00